IW1CGW-23 Weather Reports


time (UTC)temp
C
wind
direction
speed
KPH
gust
KPH
rain 1hr
cm
rain 24hr
cm
rain mn
cm
humidity
%
barometer
mb
20260902145742 27 0.0 0.0 0.00 0.00 0.00 79 1018.3
20260902144436 27 0.0 0.0 0.00 0.00 0.00 79 1018.4
20260902143128 27 0.0 0.0 0.00 0.00 0.00 79 1018.4
20260902141816 27 0.0 0.0 0.00 0.00 0.00 79 1018.5
20260902135201 27 0.0 0.0 0.00 0.00 0.00 79 1018.7
20260902133859 27 0.0 0.0 0.00 0.00 0.00 79 1018.9
20260902131240 26 0.0 0.0 0.00 0.00 0.00 79 1018.9
20260902125938 26 0.0 0.0 0.00 0.00 0.00 78 1019.0
20260902124631 27 0.0 0.0 0.00 0.00 0.00 78 1019.1
20260902122011 27 0.0 0.0 0.00 0.00 0.00 77 1019.3
20260902120708 27 0.0 0.0 0.00 0.00 0.00 76 1019.2
20260902115400 27 0.0 0.0 0.00 0.00 0.00 75 1019.4
20260902114052 28 0.0 0.0 0.00 0.00 0.00 75 1019.5
20260902112742 29 0.0 0.0 0.00 0.00 0.00 73 1019.6
20260902110124 28 0.0 0.0 0.00 0.00 0.00 74 1019.7
20260902104814 30 0.0 0.0 0.00 0.00 0.00 72 1020.0
20260902102157 28 0.0 0.0 0.00 0.00 0.00 74 1020.1
20260902100847 28 0.0 0.0 0.00 0.00 0.00 73 1020.2
20260902092919 28 0.0 0.0 0.00 0.00 0.00 71 1020.1
20260902090300 28 0.0 0.0 0.00 0.00 0.00 68 1019.9
20260902081019 31 0.0 0.0 0.00 0.00 0.00 62 1019.6
20260902075708 31 0.0 0.0 0.00 0.00 0.00 62 1019.5
20260902074400 28 0.0 0.0 0.00 0.00 0.00 64 1019.4
20260902073050 29 0.0 0.0 0.00 0.00 0.00 63 1019.3
20260902071741 28 0.0 0.0 0.00 0.00 0.00 65 1019.2
20260902070434 27 0.0 0.0 0.00 0.00 0.00 66 1019.1
20260902065125 26 0.0 0.0 0.00 0.00 0.00 68 1019.1
20260902063817 26 0.0 0.0 0.00 0.00 0.00 70 1018.9
20260902062510 25 0.0 0.0 0.00 0.00 0.00 71 1018.8
20260902061203 24 0.0 0.0 0.00 0.00 0.00 73 1019.0
20260902055858 23 0.0 0.0 0.00 0.00 0.00 74 1019.1
20260902054552 22 0.0 0.0 0.00 0.00 0.00 76 1018.9
20260902053245 22 0.0 0.0 0.00 0.00 0.00 76 1018.7
20260902051941 21 0.0 0.0 0.00 0.00 0.00 77 1018.7
20260902050636 21 0.0 0.0 0.00 0.00 0.00 77 1018.9
20260902045332 21 0.0 0.0 0.00 0.00 0.00 76 1018.7
20260902042723 21 0.0 0.0 0.00 0.00 0.00 76 1018.8
20260902041414 21 0.0 0.0 0.00 0.00 0.00 76 1018.9
20260902034810 21 0.0 0.0 0.00 0.00 0.00 76 1018.7
20260902033504 21 0.0 0.0 0.00 0.00 0.00 76 1018.6
20260902032200 21 0.0 0.0 0.00 0.00 0.00 76 1018.6
20260902030857 21 0.0 0.0 0.00 0.00 0.00 76 1018.7
20260902025551 21 0.0 0.0 0.00 0.00 0.00 76 1018.8
20260902024241 21 0.0 0.0 0.00 0.00 0.00 75 1018.8
20260902022941 21 0.0 0.0 0.00 0.00 0.00 75 1018.8
20260902021632 21 0.0 0.0 0.00 0.00 0.00 75 1018.8
20260902020327 21 0.0 0.0 0.00 0.00 0.00 75 1018.6
20260902015023 22 0.0 0.0 0.00 0.00 0.00 75 1018.7
20260902013719 21 0.0 0.0 0.00 0.00 0.00 76 1018.7
20260902012419 22 0.0 0.0 0.00 0.00 0.00 75 1018.6
20260902011114 22 0.0 0.0 0.00 0.00 0.00 75 1018.7
20260902005810 22 0.0 0.0 0.00 0.00 0.00 75 1018.8
20260902004500 22 0.0 0.0 0.00 0.00 0.00 75 1018.9
20260902003159 22 0.0 0.0 0.00 0.00 0.00 75 1018.8
20260902000551 22 0.0 0.0 0.00 0.00 0.00 75 1018.8
20260901235246 22 0.0 0.0 0.00 0.00 0.00 75 1018.7
20260901233935 22 0.0 0.0 0.00 0.00 0.00 75 1018.8
20260901232635 23 0.0 0.0 0.00 0.00 0.00 75 1018.7
20260901231325 23 0.0 0.0 0.00 0.00 0.00 75 1018.9
20260901230024 23 0.0 0.0 0.00 0.00 0.00 75 1018.9
20260901224720 23 0.0 0.0 0.00 0.00 0.00 75 1018.9
20260901223409 23 0.0 0.0 0.00 0.00 0.00 75 1018.8
20260901222104 23 0.0 0.0 0.00 0.00 0.00 76 1018.7
20260901220804 23 0.0 0.0 0.00 0.00 0.00 76 1018.6
20260901214148 23 0.0 0.0 0.00 0.00 0.00 76 1018.7
20260901212849 23 0.0 0.0 0.00 0.00 0.00 77 1018.7
20260901211543 24 0.0 0.0 0.00 0.00 0.00 77 1018.7
20260901210232 24 0.0 0.0 0.00 0.00 0.00 77 1018.6
20260901204931 24 0.0 0.0 0.00 0.00 0.00 76 1018.5
20260901203621 25 0.0 0.0 0.00 0.00 0.00 76 1018.4
20260901202315 25 0.0 0.0 0.00 0.00 0.00 76 1018.4
20260901201009 25 0.0 0.0 0.00 0.00 0.00 75 1018.5
20260901195710 25 0.0 0.0 0.00 0.00 0.00 75 1018.4
20260901194359 25 0.0 0.0 0.00 0.00 0.00 75 1018.4
20260901193052 25 0.0 0.0 0.00 0.00 0.00 74 1018.3
20260901191746 25 0.0 0.0 0.00 0.00 0.00 74 1018.2
20260901190446 26 0.0 0.0 0.00 0.00 0.00 73 1018.1
20260901185134 26 0.0 0.0 0.00 0.00 0.00 73 1017.9
20260901183827 26 0.0 0.0 0.00 0.00 0.00 72 1017.9
20260901182526 26 0.0 0.0 0.00 0.00 0.00 72 1017.8
20260901181215 26 0.0 0.0 0.00 0.00 0.00 72 1017.7
20260901175908 26 0.0 0.0 0.00 0.00 0.00 73 1017.6
20260901173255 27 0.0 0.0 0.00 0.00 0.00 73 1017.5
20260901171954 27 0.0 0.0 0.00 0.00 0.00 74 1017.5
20260901170647 27 0.0 0.0 0.00 0.00 0.00 74 1017.4
20260901164027 27 0.0 0.0 0.00 0.00 0.00 74 1017.5
20260901162724 27 0.0 0.0 0.00 0.00 0.00 74 1017.6
20260901161417 27 0.0 0.0 0.00 0.00 0.00 75 1017.6
20260901160105 27 0.0 0.0 0.00 0.00 0.00 75 1017.6
20260901154758 27 0.0 0.0 0.00 0.00 0.00 75 1017.6
20260901153456 27 0.0 0.0 0.00 0.00 0.00 75 1017.6
20260901152148 28 0.0 0.0 0.00 0.00 0.00 74 1017.6
20260901150836 27 0.0 0.0 0.00 0.00 0.00 75 1017.7